Regional Weather Roundup
Issued by NWS

Home | Current Version | Previous Version | Text Only | Print | Product List | Glossary Off
Versions: 1 2 3 4 5 6 7 8 9 10 11 12 13 14 15 16 17 18 19 20 21 22 23 24 25 26 27 28 29 30 31 32 33 34 35 36 37 38 39 40 41 42 43 44 45 46 47 48 49 50

839
ASUS44 KJAN 280310
RWRMS

MISSISSIPPI HOURLY WEATHER ROUNDUP
NATIONAL WEATHER SERVICE JACKSON MS
1000 PM CDT FRI MAR 27 2015

NOTE: "FAIR: INDICATES FEW OR NO CLOUDS BELOW 12,000 FEET WITH NO
SIGNIFICANT WEATHER AND/OR OBSTRUCTIONS TO VISIBILITY.

MSZ001>002-007>008-010>013-018>021-025>028-034>036-280400-
NORTHWEST MISSISSIPPI

CITY           SKY/WX    TMP DP  RH WIND       PRES   REMARKS
CLARKSDALE       N/A     41  39  93 CALM      30.18S
CLEVELAND      FAIR      45  38  78 CALM      30.18R
GREENWOOD      CLEAR     42  36  79 CALM      30.17R
GREENVILLE     MOCLDY    46  38  73 NE6       30.16R
OLIVE BRANCH   CLEAR     37  32  81 NE10      30.18R WCI  30
OXFORD         FAIR      37  32  81 NE5       30.19R WCI  34
TUNICA         CLEAR     41  36  81 NE6       30.19R
$$

MSZ003>006-009-014>017-022>024-029>033-037>039-280400-
NORTHEAST MISSISSIPPI

CITY           SKY/WX    TMP DP  RH WIND       PRES   REMARKS
COLUMBUS AFB   PTCLDY    40  35  83 W7        30.15R
CORINTH        FAIR      39  27  60 N8G14     30.17R WCI  34
GOLDN TRIANGLE CLEAR     43  37  81 NW6       30.14R
STARKVILLE     FAIR      41  37  87 NW3       30.15S
TUPELO         CLEAR     40  31  70 NE10      30.16R WCI  33
$$

MSZ040-058-280400-
CENTRAL MISSISSIPPI

CITY           SKY/WX    TMP DP  RH WIND       PRES   REMARKS
JACKSON INTL   PTCLDY    49  36  61 N12       30.15R
JACKSON HAWKNS PTCLDY    48  36  63 N5        30.16R
MERIDIAN KEY   CLEAR     46  34  62 NW10      30.14R
MERIDIAN NAS   NOT AVBL
RAYMOND        FAIR      48  43  81 VRB3      30.16R
VICKSBURG      LGT RAIN  50  38  63 NE8       30.17R
$$

MSZ059>079-280400-
SOUTH MISSISSIPPI

CITY           SKY/WX    TMP DP  RH WIND       PRES   REMARKS
BROOKHAVEN     FAIR      48  41  76 CALM      30.16R
HATTIESBURG    CLEAR     54  36  50 N6        30.14R
MCCOMB         CLEAR     53  37  54 N7        30.13R
NATCHEZ        CLEAR     52  37  58 NE5       30.15R
PINE BELT      CLEAR     48  34  57 N7        30.14R
$$

MSZ080>082-280400-
COASTAL MISSISSIPPI

CITY           SKY/WX    TMP DP  RH WIND       PRES   REMARKS
BILOXI         CLEAR     57  37  46 N9        30.11R
PASCAGOULA     CLEAR     53  36  52 N7        30.11R
GULFPORT       CLEAR     57  35  43 N7        30.11R
$$



USA.gov is the U.S. government's official web portal to all federal, state and local government web resources and services.